Telluride, CO

2:15 AM MST on February 21, 2017 (GMT -0700)
Telluride Regional

Weather History for KTEX - March, 2014

Change the Weather History Date:

Friday, March 7, 2014

  Actual Average Record
Temperature  
Mean Temperature 32 °F -  
Max Temperature 37 °F 36 °F 48 °F (2004)
Min Temperature 24 °F 15 °F 12 °F (2003)
Degree Days  
Heating Degree Days 34    
Moisture  
Dew Point 25 °F    
Average Humidity 82    
Maximum Humidity 100    
Minimum Humidity 48    
Precipitation  
Precipitation 0.02 in - - ()
Sea Level Pressure  
Sea Level Pressure 29.98 in    
Wind  
Wind Speed 5 mph (West)    
Max Wind Speed 20 mph    
Max Gust Speed 24 mph    
Visibility 6 miles    
Events Snow , Thunderstorm    
Averages and records for this station are not official NWS values.
T = Trace of Precipitation, MM = Missing Value Source: NWS Daily Summary

Daily Weather History Graph

Daily Weather History Graph

Search for Another Location

Airport or City:

Trip Planner

Search our weather history database for the weather conditions in past years. The results will help you decide how hot, cold, wet, or windy it might be!

Date:

Astronomy

Mar. 07, 2014 Rise Set
Actual Time 6:34 AM MST 6:11 PM MST
Civil Twilight 6:08 AM MST 6:37 PM MST
Nautical Twilight 5:37 AM MST 7:07 PM MST
Astronomical Twilight 5:07 AM MST 7:38 PM MST
Moon 10:36 AM MST (3/7) 12:13 AM MST (3/7)
Length of Visible Light 12h 29m
Length of Day
11h 36m
Waxing Crescent, 42% of the Moon is Illuminated
Mar 7
Waxing Crescent
Mar 8
First Quarter
Mar 16
Full
Mar 23
Last Quarter
Mar 30
New

Hourly Weather History & Observations

Time (MST) Temp. Windchill Dew Point Humidity Pressure Visibility Wind Dir Wind Speed Gust Speed Precip Events Conditions
12:18 AM 35.6 °F - 24.8 °F 65% 30.01 in 10.0 mi Calm Calm - N/A   Overcast
12:38 AM 37.4 °F - 21.2 °F 52% 30.00 in 10.0 mi Calm Calm - N/A   Overcast
12:58 AM 37.4 °F 34.9 °F 21.2 °F 52% 29.99 in 10.0 mi ESE 3.5 mph - N/A   Overcast
1:38 AM 35.6 °F - 23.0 °F 60% 29.99 in 10.0 mi Calm Calm - N/A   Overcast
1:58 AM 37.4 °F - 21.2 °F 52% 29.98 in 10.0 mi Calm Calm - N/A   Overcast
2:18 AM 37.4 °F - 21.2 °F 52% 29.97 in 10.0 mi Calm Calm - N/A   Overcast
2:38 AM 37.4 °F - 19.4 °F 48% 29.97 in 10.0 mi Calm Calm - N/A   Overcast
2:58 AM 37.4 °F 33.8 °F 19.4 °F 48% 29.95 in 10.0 mi WSW 4.6 mph - N/A   Overcast
3:20 AM 37.4 °F 29.8 °F 24.8 °F 60% 29.96 in 7.0 mi WSW 11.5 mph 21.9 mph N/A   Overcast
3:38 AM 35.6 °F - 24.8 °F 65% 29.95 in 10.0 mi Calm Calm - N/A   Overcast
3:58 AM 37.4 °F 33.8 °F 23.0 °F 56% 29.95 in 10.0 mi West 4.6 mph 17.3 mph N/A   Overcast
4:18 AM 37.4 °F 30.3 °F 23.0 °F 56% 29.94 in 10.0 mi WSW 10.4 mph 17.3 mph N/A Snow Light Snow
4:38 AM 35.6 °F - 24.8 °F 65% 29.95 in 10.0 mi Calm Calm - N/A   Overcast
4:58 AM 35.6 °F 31.7 °F 26.6 °F 70% 29.95 in 10.0 mi East 4.6 mph - N/A   Overcast
5:20 AM 35.6 °F - 24.8 °F 65% 29.94 in 10.0 mi Calm Calm - N/A   Overcast
5:38 AM 33.8 °F 30.8 °F 26.6 °F 75% 29.93 in 10.0 mi East 3.5 mph - N/A   Overcast
5:58 AM 33.8 °F - 26.6 °F 75% 29.93 in 10.0 mi Calm Calm - N/A   Overcast
6:20 AM 33.8 °F - 26.6 °F 75% 29.93 in 10.0 mi Calm Calm - N/A   Overcast
6:38 AM 32.0 °F - 28.4 °F 87% 29.93 in 2.0 mi Calm Calm - N/A Snow Light Snow
6:58 AM 32.0 °F - 30.2 °F 93% 29.93 in 5.0 mi Calm Calm - N/A Snow Light Snow
7:18 AM 30.2 °F 22.6 °F 26.6 °F 86% 29.93 in 1.5 mi WSW 8.1 mph - N/A Snow Light Snow
7:38 AM 28.4 °F 19.7 °F 28.4 °F 100% 29.93 in 1.0 mi WSW 9.2 mph - N/A Snow Light Snow
7:58 AM 28.4 °F 18.5 °F 28.4 °F 100% 29.93 in 0.5 mi West 11.5 mph - N/A Snow Light Snow
8:18 AM 28.4 °F 17.5 °F 28.4 °F 100% 29.95 in 0.2 mi West 13.8 mph 19.6 mph N/A Snow Heavy Snow
8:38 AM 28.4 °F 23.3 °F 28.4 °F 100% 29.95 in 0.5 mi WNW 4.6 mph - N/A Snow Snow
8:58 AM 30.2 °F - 28.4 °F 93% 29.95 in 1.5 mi Calm Calm - N/A Snow Light Snow
9:20 AM 30.2 °F - 28.4 °F 93% 29.95 in 1.8 mi Calm Calm - N/A Snow Light Snow
9:38 AM 30.2 °F - 28.4 °F 93% 29.93 in 2.5 mi Calm Calm - 0.01 in Snow Light Snow
9:58 AM 30.2 °F - 28.4 °F 93% 29.94 in 7.0 mi Calm Calm - N/A   Overcast
10:18 AM 32.0 °F - 28.4 °F 87% 29.94 in 10.0 mi Calm Calm - N/A   Overcast
10:39 AM 32.0 °F 28.7 °F 28.4 °F 87% 29.93 in 5.0 mi SW 3.5 mph - N/A Snow Light Snow
10:58 AM 33.8 °F 27.7 °F 28.4 °F 81% 29.93 in 7.0 mi West 6.9 mph - N/A Snow Light Snow
11:38 AM 30.2 °F 17.8 °F 28.4 °F 93% 29.92 in 0.5 mi West 19.6 mph 24.2 mph N/A Snow Light Snow
11:58 AM 30.2 °F 19.3 °F 28.4 °F 93% 29.93 in 0.2 mi West 15.0 mph 24.2 mph N/A Snow Snow
12:18 PM 30.2 °F 20.2 °F 26.6 °F 86% 29.94 in 0.5 mi West 12.7 mph 20.7 mph N/A Snow Light Snow
12:38 PM 28.4 °F 15.8 °F 26.6 °F 93% 29.95 in 0.5 mi West 18.4 mph 23.0 mph N/A Snow , Thunderstorm Light Thunderstorms and Snow
12:58 PM 28.4 °F 18.5 °F 26.6 °F 93% 29.96 in 0.2 mi West 11.5 mph 24.2 mph N/A Snow , Thunderstorm Snow
1:18 PM 28.4 °F 17.5 °F 26.6 °F 93% 29.96 in 0.2 mi West 13.8 mph - N/A Snow Snow
1:38 PM 28.4 °F 17.0 °F 26.6 °F 93% 29.95 in 0.2 mi West 15.0 mph - N/A Snow Snow
1:58 PM 28.4 °F 17.0 °F 26.6 °F 93% 29.96 in 0.5 mi West 15.0 mph 21.9 mph N/A Snow Snow
2:18 PM 28.4 °F 17.5 °F 26.6 °F 93% 29.96 in 0.5 mi West 13.8 mph - N/A Snow Light Snow
2:39 PM 28.4 °F 18.0 °F 26.6 °F 93% 29.97 in 1.8 mi West 12.7 mph 19.6 mph N/A Snow Light Snow
3:18 PM 30.2 °F 26.7 °F 26.6 °F 86% 29.97 in 7.0 mi NNW 3.5 mph - N/A   Overcast
3:38 PM 30.2 °F 25.4 °F 21.2 °F 69% 29.97 in 10.0 mi North 4.6 mph - 0.01 in   Scattered Clouds
3:58 PM 30.2 °F 22.6 °F 19.4 °F 64% 29.97 in 10.0 mi NNW 8.1 mph - N/A   Scattered Clouds
4:18 PM 30.2 °F 24.3 °F 19.4 °F 64% 29.99 in 10.0 mi North 5.8 mph - N/A   Mostly Cloudy
4:38 PM 30.2 °F 25.4 °F 19.4 °F 64% 30.00 in 10.0 mi WNW 4.6 mph - N/A   Overcast
4:58 PM 30.2 °F 21.9 °F 21.2 °F 69% 30.00 in 10.0 mi West 9.2 mph 20.7 mph N/A Snow Light Snow
5:18 PM 30.2 °F 20.8 °F 23.0 °F 75% 30.00 in 7.0 mi West 11.5 mph 16.1 mph N/A Snow Light Snow
5:39 PM 28.4 °F 23.3 °F 24.8 °F 86% 30.01 in 2.5 mi WNW 4.6 mph 17.3 mph N/A Snow Light Snow
5:58 PM 28.4 °F - 24.8 °F 86% 30.02 in 0.8 mi Calm Calm - N/A Snow Light Snow
6:38 PM 26.6 °F 21.2 °F 26.6 °F 100% 30.03 in 5.0 mi WNW 4.6 mph - N/A Snow Light Snow
6:58 PM 26.6 °F 17.5 °F 26.6 °F 100% 30.03 in 5.0 mi West 9.2 mph 16.1 mph N/A   Overcast
7:18 PM 26.6 °F 15.2 °F 26.6 °F 100% 30.04 in 5.0 mi West 13.8 mph 21.9 mph N/A Snow Light Snow
7:38 PM 26.6 °F 14.7 °F 26.6 °F 100% 30.04 in 1.2 mi West 15.0 mph 19.6 mph N/A Snow Light Snow
7:58 PM 26.6 °F 16.2 °F 26.6 °F 100% 30.05 in 0.8 mi West 11.5 mph - N/A Snow Snow
8:18 PM 26.6 °F 14.7 °F 26.6 °F 100% 30.05 in 2.5 mi West 15.0 mph 18.4 mph N/A Snow Light Snow
8:40 PM 26.6 °F 18.2 °F 26.6 °F 100% 30.06 in 1.8 mi WSW 8.1 mph - N/A Snow Light Snow
8:58 PM 26.6 °F 18.2 °F 26.6 °F 100% 30.06 in 4.0 mi WSW 8.1 mph - N/A   Overcast
9:18 PM 26.6 °F 20.0 °F 26.6 °F 100% 30.06 in 10.0 mi SSW 5.8 mph - N/A   Overcast
9:38 PM 26.6 °F 17.5 °F 24.8 °F 93% 30.06 in 10.0 mi SW 9.2 mph - N/A   Overcast
9:58 PM 26.6 °F 22.6 °F 24.8 °F 93% 30.06 in 10.0 mi SW 3.5 mph - N/A Snow Light Snow
10:18 PM 26.6 °F 18.2 °F 24.8 °F 93% 30.06 in 10.0 mi WSW 8.1 mph - N/A Snow Light Snow
10:58 PM 26.6 °F 20.0 °F 23.0 °F 86% 30.07 in 10.0 mi WSW 5.8 mph - N/A Snow Light Snow
11:18 PM 26.6 °F 19.1 °F 23.0 °F 86% 30.07 in 7.0 mi WSW 6.9 mph - N/A Snow Light Snow
11:38 PM 26.6 °F 19.1 °F 21.2 °F 80% 30.07 in 10.0 mi WSW 6.9 mph - N/A Snow Light Snow
11:58 PM 24.8 °F 14.0 °F 23.0 °F 93% 30.07 in 10.0 mi WSW 11.5 mph - N/A   Overcast